Location: Newark
(50.1751°N, 5.6239°W)
Time: 14:30:53
(UTC+00:00)

ISS - Pass Details

Date: 03 October 2021
Orbit: 417 x 423 km, 51.6° (Epoch: 28 October)

Event Time Altitude Azimuth Distance (km) Brightness Sun altitude
Rises 19:52:34 0° 283° (WNW) 2,367 1.7 -19.3°
Reaches altitude 10° 19:55:08 10° 263° (W) 1,500 0.0 -19.7°
Maximum altitude 19:57:27 17° 220° (SW) 1,125 -1.4 -20.0°
Enters shadow 19:58:27 16° 197° (SSW) 1,202 -1.5 -20.2°
